Weather History for Fort Myers, FL

Change the Weather History Date:

Wednesday, April 10, 2013

  Actual Average Record
Temperature  
Mean Temperature 78 °F 73 °F  
Max Temperature 90 °F 84 °F 93 °F (1944)
Min Temperature 65 °F 62 °F 47 °F (1950)
Degree Days  
Heating Degree Days 0 0  
Month to date heating degree days 0 0  
Since 1 July heating degree days 201 284  
Cooling Degree Days 13 8  
Month to date cooling degree days 90 76  
Year to date cooling degree days 472 437  
Growing Degree Days 26 (Base 50)    
Moisture  
Dew Point 67 °F    
Average Humidity 76    
Maximum Humidity 93    
Minimum Humidity 46    
Precipitation  
Precipitation 0.07 in 0.07 in 1.23 in (1951)
Month to date precipitation 1.33 0.78  
Year to date precipitation 4.59 7.75  
Sea Level Pressure  
Sea Level Pressure 30.03 in    
Wind  
Wind Speed 7 mph (ESE)    
Max Wind Speed 18 mph    
Max Gust Speed 23 mph    
Visibility 10 miles    
Events Rain , Thunderstorm    
T = Trace of Precipitation, MM = Missing Value Source: NWS Daily Summary

Daily Weather History Graph

Daily Weather History Graph

Search for Another Location

Airport:

Trip Planner

Search our weather history database for the weather conditions in past years. The results will help you decide how hot, cold, wet, or windy it might be!

Date:

Astronomy

Apr. 10, 2013 Rise Set
Actual Time 7:08 AM EDT 7:49 PM EDT
Civil Twilight 6:45 AM EDT 8:12 PM EDT
Nautical Twilight 6:17 AM EDT 8:40 PM EDT
Astronomical Twilight 5:49 AM EDT 9:08 PM EDT
Moon 7:06 AM EDT (4/10) 8:17 PM EDT (4/10)
Length of Visible Light 13h 27m
Length of Day
12h 40m
New Moon, 0% of the Moon is Illuminated
Apr 10
New Moon
Apr 18
First Quarter
Apr 25
Full
May 2
Last Quarter
May 9
New

Hourly Weather History & Observations

Time (EDT) Temp. Heat Index Dew Point Humidity Pressure Visibility Wind Dir Wind Speed Gust Speed Precip Events Conditions
12:53 AM 71.1 °F - 64.0 °F 78% 30.10 in 10.0 mi East 8.1 mph - N/A   Clear
1:53 AM 70.0 °F - 64.0 °F 81% 30.09 in 10.0 mi East 5.8 mph - N/A   Clear
2:53 AM 69.1 °F - 64.0 °F 84% 30.08 in 10.0 mi East 3.5 mph - N/A   Clear
3:53 AM 66.9 °F - 64.0 °F 90% 30.07 in 10.0 mi East 3.5 mph - N/A   Clear
4:53 AM 66.0 °F - 64.0 °F 93% 30.06 in 10.0 mi ENE 3.5 mph - N/A   Clear
5:53 AM 66.0 °F - 64.0 °F 93% 30.05 in 10.0 mi ENE 4.6 mph - N/A   Clear
6:53 AM 64.9 °F - 63.0 °F 93% 30.06 in 10.0 mi East 5.8 mph - N/A   Clear
7:53 AM 66.0 °F - 64.0 °F 93% 30.06 in 10.0 mi East 5.8 mph - N/A   Clear
8:53 AM 72.0 °F - 66.0 °F 81% 30.07 in 10.0 mi ESE 10.4 mph - N/A   Clear
9:53 AM 77.0 °F - 66.0 °F 69% 30.06 in 10.0 mi ESE 12.7 mph 18.4 mph N/A   Clear
10:53 AM 81.0 °F 83.0 °F 66.0 °F 60% 30.07 in 10.0 mi ESE 15.0 mph 19.6 mph N/A   Partly Cloudy
11:53 AM 82.9 °F 85.0 °F 66.0 °F 56% 30.06 in 10.0 mi SE 10.4 mph - N/A   Scattered Clouds
12:53 PM 86.0 °F 88.8 °F 66.9 °F 53% 30.04 in 10.0 mi SSE 8.1 mph - N/A   Scattered Clouds
1:53 PM 87.1 °F 88.9 °F 64.9 °F 48% 30.02 in 10.0 mi ESE 8.1 mph 16.1 mph N/A   Scattered Clouds
2:53 PM 88.0 °F 90.3 °F 66.0 °F 48% 30.01 in 10.0 mi South 6.9 mph - N/A   Partly Cloudy
3:53 PM 88.0 °F 92.1 °F 69.1 °F 53% 29.99 in 10.0 mi SW 12.7 mph 18.4 mph N/A   Mostly Cloudy
4:53 PM 84.0 °F 87.8 °F 69.1 °F 61% 29.98 in 10.0 mi SSW 9.2 mph - N/A   Scattered Clouds
5:53 PM 80.1 °F 83.6 °F 71.1 °F 74% 29.98 in 10.0 mi SSE 16.1 mph 23.0 mph N/A   Overcast
6:30 PM 75.2 °F - 69.8 °F 83% 29.97 in 5.0 mi SSE 5.8 mph - 0.07 in Rain , Thunderstorm Light Rain
6:37 PM 75.2 °F - 69.8 °F 83% 29.97 in 10.0 mi South 4.6 mph - 0.07 in   Overcast
6:53 PM 75.9 °F - 68.0 °F 76% 29.98 in 10.0 mi SSE 5.8 mph - 0.07 in   Mostly Cloudy
7:53 PM 75.9 °F - 69.1 °F 79% 29.99 in 10.0 mi Calm Calm - N/A   Mostly Cloudy
8:53 PM 75.0 °F - 70.0 °F 84% 29.99 in 10.0 mi ESE 3.5 mph - N/A   Scattered Clouds
9:53 PM 75.0 °F - 70.0 °F 84% 30.01 in 10.0 mi East 5.8 mph - N/A   Overcast
10:53 PM 75.0 °F - 70.0 °F 84% 30.01 in 10.0 mi ESE 5.8 mph - N/A   Overcast
11:53 PM 73.9 °F - 69.1 °F 85% 30.00 in 10.0 mi SE 8.1 mph - N/A   Mostly Cloudy